�������l�o���
Date,Time,MP-1(��Sv/h),MP-2(��Sv/h),MP-3(��Sv/h),MP-4(��Sv/h),MP-5(��Sv/h),MP-6(��Sv/h),MP-7(��Sv/h),MP-8(��Sv/h),����,����(m/s),���J
2023/02/24,00:00,0.564,0.817,0.501,1.043,0.726,0.323,0.582,0.553,���k��,7.8,��
2023/02/24,00:10,0.564,0.817,0.502,1.044,0.726,0.324,0.581,0.553,��,5.8,��
2023/02/24,00:20,0.563,0.817,0.501,1.042,0.726,0.322,0.581,0.553,��,4.9,��
2023/02/24,00:30,0.564,0.818,0.501,1.042,0.726,0.323,0.582,0.553,��,4.1,��
2023/02/24,00:40,0.565,0.819,0.502,1.043,0.725,0.322,0.581,0.552,��,3.1,��
2023/02/24,00:50,0.563,0.820,0.502,1.044,0.725,0.322,0.582,0.553,��,2.6,��
2023/02/24,01:00,0.566,0.817,0.502,1.041,0.725,0.323,0.581,0.553,���k��,1.1,��
2023/02/24,01:10,0.565,0.818,0.501,1.041,0.724,0.322,0.582,0.552,���k��,2.0,��
2023/02/24,01:20,0.565,0.817,0.501,1.043,0.722,0.321,0.582,0.553,��,2.6,��
2023/02/24,01:30,0.565,0.819,0.502,1.043,0.726,0.323,0.582,0.553,-,CALM,��
2023/02/24,01:40,0.564,0.816,0.502,1.043,0.724,0.324,0.582,0.554,-,CALM,��
2023/02/24,01:50,0.564,0.817,0.502,1.042,0.726,0.325,0.583,0.553,���k��,1.5,��
2023/02/24,02:00,0.566,0.818,0.502,1.043,0.725,0.321,0.582,0.553,���쐼,3.3,��
2023/02/24,02:10,0.564,0.818,0.502,1.043,0.726,0.323,0.581,0.553,���쐼,2.8,��
2023/02/24,02:20,0.565,0.817,0.502,1.042,0.725,0.324,0.583,0.555,���쐼,3.3,��
2023/02/24,02:30,0.564,0.816,0.502,1.040,0.724,0.324,0.583,0.554,��,2.0,��
2023/02/24,02:40,0.564,0.816,0.502,1.042,0.724,0.323,0.583,0.552,���k��,1.5,��
2023/02/24,02:50,0.563,0.818,0.501,1.043,0.725,0.322,0.582,0.553,��,1.7,��
2023/02/24,03:00,0.564,0.815,0.502,1.041,0.725,0.323,0.584,0.552,��,2.2,��
2023/02/24,03:10,0.564,0.816,0.503,1.043,0.726,0.322,0.584,0.554,���쐼,4.0,��
2023/02/24,03:20,0.565,0.816,0.503,1.043,0.724,0.323,0.583,0.555,��,3.8,��
2023/02/24,03:30,0.564,0.819,0.503,1.044,0.726,0.324,0.582,0.554,���쐼,5.4,��
2023/02/24,03:40,0.566,0.816,0.502,1.042,0.726,0.323,0.582,0.554,��,5.1,��
2023/02/24,03:50,0.565,0.817,0.503,1.043,0.726,0.324,0.583,0.553,���쐼,4.2,��
2023/02/24,04:00,0.563,0.816,0.502,1.043,0.726,0.324,0.583,0.554,��,6.4,��
2023/02/24,04:10,0.565,0.816,0.501,1.043,0.727,0.323,0.582,0.554,��,5.4,��
2023/02/24,04:20,0.564,0.816,0.502,1.042,0.725,0.324,0.583,0.554,��,6.8,��
2023/02/24,04:30,0.565,0.816,0.502,1.044,0.726,0.323,0.584,0.554,��,5.5,��
2023/02/24,04:40,0.565,0.816,0.502,1.044,0.726,0.324,0.583,0.554,��,5.6,��
2023/02/24,04:50,0.566,0.819,0.502,1.044,0.726,0.324,0.584,0.555,��,6.6,��
2023/02/24,05:00,0.565,0.816,0.503,1.043,0.725,0.323,0.583,0.553,��,4.0,��
2023/02/24,05:10,0.564,0.817,0.501,1.043,0.727,0.324,0.583,0.553,��,5.8,��
2023/02/24,05:20,0.564,0.816,0.502,1.043,0.724,0.322,0.583,0.554,��,5.9,��
2023/02/24,05:30,0.564,0.818,0.501,1.042,0.726,0.322,0.583,0.554,���k��,4.2,��
2023/02/24,05:40,0.564,0.820,0.501,1.042,0.724,0.322,0.582,0.554,���k��,3.0,��
2023/02/24,05:50,0.565,0.816,0.502,1.042,0.726,0.323,0.581,0.553,��,2.6,��
2023/02/24,06:00,0.565,0.816,0.503,1.042,0.725,0.322,0.582,0.553,�k��,1.7,��
2023/02/24,06:10,0.564,0.815,0.501,1.042,0.725,0.323,0.583,0.554,�k,1.5,��
2023/02/24,06:20,0.563,0.817,0.501,1.045,0.725,0.324,0.582,0.553,�k,2.6,��
2023/02/24,06:30,0.565,0.817,0.502,1.044,0.726,0.323,0.584,0.555,�k��,3.0,��
2023/02/24,06:40,0.564,0.819,0.503,1.043,0.724,0.323,0.582,0.554,���k��,3.9,��
2023/02/24,06:50,0.566,0.817,0.501,1.042,0.725,0.324,0.583,0.554,���k��,5.5,��
2023/02/24,07:00,0.565,0.817,0.502,1.043,0.726,0.321,0.581,0.553,���k��,5.5,��
2023/02/24,07:10,0.565,0.819,0.502,1.043,0.727,0.322,0.582,0.555,�k��,4.5,��
2023/02/24,07:20,0.563,0.817,0.501,1.044,0.727,0.323,0.585,0.553,���k��,4.1,��
2023/02/24,07:30,0.565,0.816,0.501,1.045,0.727,0.322,0.583,0.554,�k��,5.6,��
2023/02/24,07:40,0.563,0.818,0.501,1.044,0.727,0.322,0.582,0.554,�k��,5.4,��
2023/02/24,07:50,0.567,0.815,0.503,1.041,0.726,0.324,0.582,0.552,�k��,5.8,��
2023/02/24,08:00,0.565,0.818,0.499,1.046,0.725,0.323,0.583,0.553,�k��,4.0,��
2023/02/24,08:10,0.566,0.817,0.500,1.043,0.727,0.323,0.583,0.553,�k��,4.6,��
2023/02/24,08:20,0.565,0.814,0.502,1.044,0.727,0.321,0.582,0.554,�k��,5.2,��
2023/02/24,08:30,0.567,0.814,0.501,1.045,0.727,0.322,0.583,0.552,�k��,6.0,��
2023/02/24,08:40,0.564,0.817,0.501,1.044,0.728,0.322,0.580,0.553,�k��,6.0,��
2023/02/24,08:50,0.565,0.816,0.498,1.044,0.727,0.322,0.582,0.554,�k��,5.1,��
2023/02/24,09:00,0.567,0.818,0.499,1.047,0.726,0.323,0.580,0.554,�k��,4.1,��
2023/02/24,09:10,0.567,0.816,0.502,1.045,0.727,0.322,0.581,0.554,�k�k��,3.5,��
2023/02/24,09:20,0.566,0.815,0.500,1.045,0.727,0.321,0.582,0.553,�k��,4.2,��
2023/02/24,09:30,0.567,0.817,0.502,1.045,0.727,0.322,0.581,0.553,�k�k��,4.9,��
2023/02/24,09:40,0.566,0.816,0.502,1.047,0.727,0.324,0.582,0.555,�k�k��,3.3,��
2023/02/24,09:50,0.567,0.817,0.502,1.044,0.727,0.323,0.582,0.555,�k�k��,2.2,��
2023/02/24,10:00,0.566,0.816,0.501,1.045,0.726,0.322,0.582,0.554,�k,1.5,��
2023/02/24,10:10,0.567,0.819,0.501,1.044,0.729,0.323,0.581,0.556,�k�k��,1.7,��
2023/02/24,10:20,0.566,0.817,0.501,1.046,0.728,0.324,0.580,0.556,�k,1.5,��
2023/02/24,10:30,0.565,0.817,0.501,1.045,0.725,0.323,0.582,0.554,�k�k��,2.3,��
2023/02/24,10:40,0.567,0.819,0.502,1.046,0.727,0.323,0.581,0.554,�k�k��,3.0,��
2023/02/24,10:50,0.569,0.817,0.502,1.047,0.727,0.322,0.582,0.555,�k�k��,3.8,��
2023/02/24,11:00,0.568,0.818,0.503,1.046,0.728,0.324,0.581,0.555,�k��,3.3,��
2023/02/24,11:10,0.567,0.817,0.502,1.046,0.726,0.323,0.581,0.554,�k��,4.1,��
2023/02/24,11:20,0.567,0.818,0.502,1.046,0.729,0.323,0.581,0.553,�k��,4.7,��
2023/02/24,11:30,0.567,0.817,0.503,1.044,0.727,0.324,0.582,0.552,�k��,5.0,��
2023/02/24,11:40,0.567,0.815,0.504,1.044,0.729,0.324,0.582,0.553,�k��,4.7,��
2023/02/24,11:50,0.569,0.818,0.502,1.044,0.726,0.324,0.582,0.554,�k��,4.4,��
2023/02/24,12:00,0.567,0.819,0.503,1.046,0.722,0.323,0.580,0.553,�k��,3.8,��
2023/02/24,12:10,0.567,0.818,0.503,1.046,0.726,0.324,0.580,0.552,�k��,4.2,��
2023/02/24,12:20,0.568,0.817,0.503,1.046,0.725,0.324,0.580,0.553,�k��,5.6,��
2023/02/24,12:30,0.566,0.818,0.503,1.046,0.725,0.323,0.580,0.552,�k��,5.4,��
2023/02/24,12:40,0.566,0.817,0.502,1.044,0.727,0.323,0.581,0.551,�k��,5.1,��
2023/02/24,12:50,0.565,0.817,0.502,1.046,0.728,0.323,0.581,0.551,�k��,5.0,��
2023/02/24,13:00,0.568,0.817,0.501,1.047,0.725,0.323,0.581,0.551,�k��,5.3,��
2023/02/24,13:10,0.567,0.816,0.504,1.046,0.725,0.324,0.581,0.553,�k��,4.7,��
2023/02/24,13:20,0.567,0.817,0.502,1.044,0.726,0.324,0.581,0.553,�k��,4.6,��
2023/02/24,13:30,0.567,0.815,0.504,1.045,0.725,0.324,0.581,0.552,�k��,3.5,��
2023/02/24,13:40,0.566,0.816,0.501,1.048,0.724,0.325,0.580,0.553,���k��,2.6,��
2023/02/24,13:50,0.569,0.817,0.504,1.045,0.725,0.324,0.583,0.553,���k��,3.2,��
2023/02/24,14:00,0.567,0.817,0.503,1.045,0.724,0.324,0.582,0.554,�k��,2.9,��
2023/02/24,14:10,0.567,0.818,0.503,1.047,0.726,0.324,0.581,0.553,�k��,2.3,��
2023/02/24,14:20,0.569,0.820,0.503,1.045,0.728,0.323,0.580,0.552,���k��,2.2,��
2023/02/24,14:30,0.567,0.818,0.503,1.048,0.725,0.324,0.582,0.552,�k��,1.9,��
2023/02/24,14:40,0.568,0.820,0.504,1.045,0.725,0.324,0.580,0.552,�k��,2.0,��
2023/02/24,14:50,0.567,0.822,0.503,1.046,0.727,0.324,0.581,0.554,�k��,1.7,��
2023/02/24,15:00,0.570,0.819,0.504,1.045,0.725,0.324,0.580,0.555,�k�k��,1.8,��
2023/02/24,15:10,0.569,0.823,0.503,1.047,0.727,0.324,0.581,0.553,�k�k��,2.2,��
2023/02/24,15:20,0.568,0.820,0.505,1.048,0.728,0.324,0.581,0.554,�k�k��,1.9,��
2023/02/24,15:30,0.568,0.819,0.504,1.046,0.728,0.325,0.582,0.554,�k�k��,1.7,��
2023/02/24,15:40,0.567,0.821,0.504,1.046,0.727,0.324,0.581,0.555,�k��,1.5,��
2023/02/24,15:50,0.569,0.822,0.503,1.047,0.729,0.325,0.581,0.555,�k��,2.0,��
2023/02/24,16:00,0.566,0.821,0.504,1.045,0.727,0.324,0.581,0.554,���k��,1.2,��
2023/02/24,16:10,0.568,0.821,0.502,1.045,0.729,0.325,0.581,0.556,���k��,2.0,��
2023/02/24,16:20,0.568,0.821,0.504,1.046,0.728,0.324,0.582,0.553,�k��,2.0,��
2023/02/24,16:30,0.569,0.821,0.503,1.044,0.728,0.324,0.580,0.555,�k��,2.0,��
2023/02/24,16:40,0.566,0.821,0.503,1.045,0.728,0.323,0.581,0.554,�k�k��,2.9,��
2023/02/24,16:50,0.567,0.820,0.502,1.047,0.729,0.324,0.582,0.554,�k�k��,3.3,��
2023/02/24,17:00,0.569,0.821,0.503,1.045,0.727,0.325,0.582,0.552,�k�k��,3.7,��
2023/02/24,17:10,0.569,0.820,0.504,1.047,0.728,0.324,0.581,0.554,�k,3.6,��
2023/02/24,17:20,0.567,0.822,0.504,1.046,0.729,0.325,0.583,0.555,�k,3.8,��
2023/02/24,17:30,0.566,0.821,0.503,1.044,0.728,0.324,0.581,0.554,�k�k��,4.5,��
2023/02/24,17:40,0.567,0.818,0.504,1.047,0.729,0.323,0.581,0.554,�k�k��,2.3,�L
2023/02/24,17:50,0.569,0.822,0.504,1.047,0.729,0.323,0.582,0.554,�k�k��,4.0,�L
2023/02/24,18:00,0.566,0.820,0.503,1.047,0.728,0.323,0.582,0.555,�k�k��,3.4,�L
2023/02/24,18:10,0.566,0.821,0.503,1.046,0.729,0.324,0.582,0.554,�k�k��,3.1,��
2023/02/24,18:20,0.567,0.821,0.504,1.047,0.728,0.325,0.581,0.555,�k�k��,4.0,��
2023/02/24,18:30,0.568,0.820,0.504,1.044,0.727,0.325,0.581,0.555,�k��,2.8,��
2023/02/24,18:40,0.567,0.818,0.503,1.047,0.729,0.322,0.582,0.555,���k��,1.9,��
2023/02/24,18:50,0.567,0.819,0.504,1.046,0.728,0.323,0.582,0.554,�k��,2.6,��
2023/02/24,19:00,0.567,0.820,0.502,1.046,0.729,0.322,0.581,0.555,�k��,2.8,��
2023/02/24,19:10,0.568,0.820,0.502,1.046,0.729,0.323,0.581,0.554,�k��,3.1,��
2023/02/24,19:20,0.568,0.818,0.504,1.045,0.729,0.324,0.582,0.554,���k��,4.1,��
2023/02/24,19:30,0.568,0.820,0.503,1.047,0.729,0.324,0.583,0.553,�k��,3.5,��
2023/02/24,19:40,0.565,0.818,0.503,1.047,0.726,0.324,0.583,0.554,�k��,3.8,��
2023/02/24,19:50,0.568,0.821,0.504,1.046,0.728,0.324,0.584,0.554,�k��,3.4,��
2023/02/24,20:00,0.567,0.820,0.504,1.045,0.729,0.323,0.584,0.554,�k��,3.8,��
2023/02/24,20:10,0.567,0.820,0.503,1.047,0.727,0.324,0.582,0.554,���k��,3.8,�L
2023/02/24,20:20,0.568,0.820,0.501,1.045,0.727,0.324,0.583,0.554,���k��,4.1,��
2023/02/24,20:30,0.568,0.821,0.503,1.046,0.728,0.323,0.582,0.554,�k��,4.4,��
2023/02/24,20:40,0.569,0.820,0.503,1.045,0.728,0.323,0.583,0.552,�k��,4.8,�L
2023/02/24,20:50,0.567,0.821,0.503,1.047,0.728,0.324,0.582,0.554,���k��,4.5,��
2023/02/24,21:00,0.566,0.821,0.502,1.045,0.727,0.322,0.582,0.555,���k��,4.7,�L
2023/02/24,21:10,0.568,0.821,0.503,1.045,0.728,0.324,0.583,0.554,���k��,4.6,�L
2023/02/24,21:20,0.567,0.820,0.503,1.045,0.728,0.322,0.583,0.553,���k��,4.5,�L
2023/02/24,21:30,0.567,0.819,0.504,1.046,0.729,0.324,0.583,0.554,���k��,4.3,�L
2023/02/24,21:40,0.567,0.821,0.503,1.047,0.727,0.325,0.582,0.554,���k��,3.5,�L
2023/02/24,21:50,0.566,0.821,0.504,1.047,0.729,0.324,0.582,0.555,���k��,3.4,��
2023/02/24,22:00,0.567,0.819,0.502,1.047,0.729,0.325,0.583,0.555,���k��,3.8,�L
2023/02/24,22:10,0.568,0.821,0.503,1.046,0.729,0.324,0.583,0.553,���k��,4.5,��
2023/02/24,22:20,0.567,0.820,0.501,1.047,0.729,0.323,0.582,0.556,���k��,3.3,��
2023/02/24,22:30,0.567,0.820,0.503,1.047,0.729,0.325,0.582,0.554,�k��,2.8,��
2023/02/24,22:40,0.565,0.820,0.504,1.045,0.727,0.322,0.583,0.554,���k��,3.2,��
2023/02/24,22:50,0.568,0.820,0.502,1.047,0.727,0.324,0.583,0.554,�k��,3.6,��
2023/02/24,23:00,0.567,0.818,0.503,1.047,0.727,0.323,0.582,0.553,�k��,3.6,��
2023/02/24,23:10,0.566,0.820,0.502,1.046,0.726,0.324,0.583,0.554,�k��,3.2,��
2023/02/24,23:20,0.566,0.820,0.503,1.044,0.726,0.325,0.582,0.554,�k��,4.2,��
2023/02/24,23:30,0.565,0.820,0.501,1.046,0.728,0.323,0.583,0.554,�k��,3.9,��
2023/02/24,23:40,0.567,0.820,0.504,1.047,0.728,0.323,0.584,0.555,�k��,4.5,��
2023/02/24,23:50,0.566,0.819,0.501,1.047,0.729,0.323,0.584,0.554,�k��,4.2,��
